Regional Weather Roundup
Issued by NWS

Home | Current Version | Previous Version | Text Only | Print | Product List | Glossary On
Versions: 1 2 3 4 5 6 7 8 9 10 11 12 13 14 15 16 17 18 19 20 21 22 23 24 25 26 27 28 29 30 31 32 33 34 35 36 37 38 39 40 41 42 43 44 45 46 47 48 49 50
000
ASUS42 KTBW 281717
RWRFL
FLORIDA REGIONAL WEATHER ROUNDUP
NATIONAL WEATHER SERVICE TAMPA BAY RUSKIN FL
100 PM EDT SUN MAY 28 2017

NOTE: "FAIR" INDICATES FEW OR NO CLOUDS BELOW 12,000 FEET WITH NO
SIGNIFICANT WEATHER AND/OR OBSTRUCTIONS TO VISIBILITY.

FLZ001>010-012>015-112-114-115-281800-
PANHANDLE FLORIDA

CITY           SKY/WX    TMP DP  RH WIND       PRES   REMARKS
PENSACOLA      PTSUNNY   87  73  62 SW10      30.06S
PENSACOLA NAS  CLOUDY    82  75  79 SW13      30.07R
MILTON NAS     PTSUNNY   86  75  69 SW8       30.05  HX  95
CRESTVIEW      PTSUNNY   88  70  55 VRB7      30.06R
DUKE FIELD     FAIR      89  70  53 SW10      30.04S
VALPARAISO     PTSUNNY   85  74  69 SW13      30.05S
MARY ESTHER    PTSUNNY   85  75  71 SW15G24   30.05S
PANAMA CITY    FAIR      86  75  69 SW15G21   30.04S HX  95
TYNDALL AFB    MOSUNNY   84  76  75 W13       30.07S
APALACHICOLA   PTSUNNY   87  76  69 W17       30.06S HX  97

STATION/POSITION SKY/WX   TEMP    WIND        PRES    WAVE   SWELL
                          AIR SEA DIR/SP/G            HT/PER HT/PER
                          (F)     (DEG/KT/KT) (MB)    (FT/S) (FT/S)
30.1N   87.6W              79 79  200/  8/  8 1018.0S   3/ 5   2/ 5
29.2N   88.2W              80 80  190/  8/ 10 1018.8R   3/ 4   2/ 4
28.8N   86.0W              80 81   CALM  /  2 1018.8F   2/ 8   2/ 8
PANAMA CITY BEAC           79 80  230/ 12/ 13 1018.4F
TOWER C                    78     260/ 10/ 10 1018.9F
28.5N   84.5W              77 78  280/  6/  8 1019.0F   1/ 8   2/ 8

$$
FLZ011-016>038-118-127-128-134-139-239-281800-
NORTH FLORIDA

CITY           SKY/WX    TMP DP  RH WIND       PRES   REMARKS
MARIANNA       MOSUNNY   89  72  56 NW8       30.02F HX  96
TALLAHASSEE    MOSUNNY   91  71  51 W13       30.04S HX  97
PERRY          PTSUNNY   89  72  57 W9G17     30.05S HX  95
CROSS CITY     PTSUNNY   88  70  55 NW7       30.05S
LAKE CITY      PTSUNNY   86  68  54 W12G17    30.03F
GAINESVILLE    MOSUNNY   88  67  49 W13G18    30.04F
WILLISTON      SUNNY     90  70  51 W13       30.05F HX  95
PALATKA        FAIR      88  70  55 NW9G16    30.04F
MAYPORT NAS    SUNNY     88  70  55 SW9       30.01F
JACKSONVILLE   MOSUNNY   89  73  59 W6        30.00F HX  97
JAX NAS        MOSUNNY   88  69  53 W9        30.02F
FERNANDINA BEA FAIR      91  70  49 W10       29.99F HX  97
ST AUGUSTINE   MOSUNNY   88  70  55 W10G20    30.03F
PALM COAST     MOSUNNY   88  70  55 NW10G16   30.05R

STATION/POSITION SKY/WX   TEMP    WIND        PRES    WAVE   SWELL
                          AIR SEA DIR/SP/G            HT/PER HT/PER
                          (F)     (DEG/KT/KT) (MB)    (FT/S) (FT/S)
SHELL POINT      NOT AVBL
KEATON BEACH               78     250/ 11/ 12 1017.5F
CEDAR KEY                  82     310/  8/ 10 1018.4F
FERNANDINA                 86 79  260/  7/  9 1016.8F
30.7N   81.3W                 80                N/A     1/ 8
MAYPORT                    83 79  250/  9/ 14 1016.7F
31.4N   80.9W              78 78  190/ 12/ 14 1015.1F   2/ 7   2/ 7
ST AUGUSTINE               85 77  290/  6/  9 1017.4F

$$
FLZ040-043>046-052-053-057-058-063-144-281800-
INTERIOR CENTRAL FLORIDA

CITY           SKY/WX    TMP DP  RH WIND       PRES   REMARKS
OCALA          MOSUNNY   89  69  51 NW9       30.05F
THE VILLAGES     N/A     90  70  51 MISG      29.95F HX  95
LEESBURG       MOSUNNY   89  70  53 NW10      30.06F
SANFORD        SUNNY     90  66  45 W14G21    30.04F
ORLANDO EXEC   SUNNY     88  69  53 W9        30.05F
ORLANDO INTL   MOSUNNY   87  66  49 NW13G18   30.05S
KISSIMMEE      SUNNY     88  69  53 NW12G18   30.06S
WINTER HAVEN   SUNNY     91  65  41 W9G18     30.07S
LAKELAND       MOSUNNY   90  70  51 NW12      30.07S HX  95
BARTOW         SUNNY     86  66  51 NW12      30.06F
OKEECHOBEE     SUNNY     90  64  43 W7        30.06F

$$
FLZ041-047-054-059-064-141-147-281800-
EAST CENTRAL FLORIDA

CITY           SKY/WX    TMP DP  RH WIND       PRES   REMARKS
ORMOND BEACH   MOSUNNY   70  66  88 W12G17    30.04F
DAYTONA BEACH  MOSUNNY   89  69  51 NW14G20   30.04S
DELAND         MOSUNNY   88  68  51 W10G21    30.04S
NEW SMYRNA BEA MOSUNNY   90  66  45 NW12      30.05S
JFK SPACE CTR  SUNNY     89  67  47 W10       30.03S
TITUSVILLE     SUNNY     91  63  38 NW12      30.04
CAPE CANAVERAL SUNNY     92  65  40 S3        30.02F
PATRICK AFB    SUNNY     83  73  70 E12       30.04F
MELBOURNE      SUNNY     92  61  35 SW8       30.03F
VERO BEACH     SUNNY     86  71  60 E3        30.05F
FT PIERCE      SUNNY     87  72  60 VRB3      30.05F
STUART         SUNNY     90  70  51 E8        30.06F HX  95

STATION/POSITION SKY/WX   TEMP    WIND        PRES    WAVE   SWELL
                          AIR SEA DIR/SP/G            HT/PER HT/PER
                          (F)     (DEG/KT/KT) (MB)    (FT/S) (FT/S)
28.5N   80.2W              76 77  350/  4/  4 1018.6F   2/ 8   2/ 8
28.9N   78.5W              81 80  220/ 10/ 10 1016.6F   2/ 9   2/ 9
TRIDENT PIER               79 78   80/  9/ 11 1018.9F
28.4N   80.5W                 77                N/A     1/ 9
27.5N   80.2W                 77                N/A     1/ 8

$$
FLZ050-056-061-142-242-148-248-149-249-151-251-155-255-
160-260-281800-
WEST CENTRAL FLORIDA

CITY           SKY/WX    TMP DP  RH WIND       PRES   REMARKS
CRYSTAL RIVER  FAIR      86  72  62 W14G20    30.07F
INVERNESS      PTSUNNY   88  72  58 W9        30.06F
BROOKSVILLE    LGT RAIN  88  71  57 W14G22    30.08S
CLEARWATER AIR FAIR      82  72  69 NW14      30.08S
ST PETE CLEARW MOSUNNY   88  70  55 NW16      30.07S
TAMPA INTL     MOSUNNY   91  69  48 NW14      30.07S HX  96
TAMPA EXEC     MOSUNNY   90  70  51 NW12G18   30.07S HX  95
PLANT CITY     MOSUNNY   91  70  49 W16       30.08S HX  97
MACDILL AFB    MOSUNNY   88  73  60 NW9       30.07S HX  96
PETER O KNIGHT PTSUNNY   90  72  55 NW8       30.07S HX  96
ST PETERSBURG  SUNNY     87  67  51 NW12G17   30.05F
SARASOTA       SUNNY     86  72  62 W15       30.06F
VENICE         FAIR      84  75  74 NW12      30.09S

STATION/POSITION SKY/WX   TEMP    WIND        PRES    WAVE   SWELL
                          AIR SEA DIR/SP/G            HT/PER HT/PER
                          (F)     (DEG/KT/KT) (MB)    (FT/S) (FT/S)
27.3N   84.2W                 80                N/A     1/ 7
CLEARWATER BEACH           80 82  320/ 12/ 14 1019.0R
MIDDLE TAMPA BAY           82     300/ 13/ 15 1018.7F
VENICE                     81 83  300/ 11/ 12 1018.2F

$$
FLZ066-069-070-075>078-162-262-165-265-281800-
SOUTHWEST FLORIDA AND KEYS

CITY           SKY/WX    TMP DP  RH WIND       PRES   REMARKS
PUNTA GORDA    SUNNY     89  71  55 SW13      30.08F HX  95
FT MYERS       SUNNY     91  70  49 W10       30.06F HX  96
SOUTHWEST INTL MOSUNNY   88  68  51 W8        30.07S
NAPLES         SUNNY     87  70  56 W12       30.08R
MARCO ISLAND   SUNNY     90  70  51 SW7       30.09R HX  95
IMMOKALEE      FAIR      90  68  48 SW8       30.07F
MARATHON       SUNNY     91  78  65 VRB6      30.07S HX 106
KEY WEST NAS   MOSUNNY   87  78  74 S8        30.07F HX 100
KEY WEST INTL  SUNNY     86  76  71 S7        30.08S HX  96

STATION/POSITION SKY/WX   TEMP    WIND        PRES    WAVE   SWELL
                          AIR SEA DIR/SP/G            HT/PER HT/PER
                          (F)     (DEG/KT/KT) (MB)    (FT/S) (FT/S)
NAPLES                        85  300/  6/  8 1018.8R
DRY TORTUGAS               83      90/  4/  4 1018.9R
SAND KEY                   83     190/  7/  9 1019.1S
LONG KEY                   84 89  210/  4/  5 1018.1F
MOLASSES REEF              83 83   CALM  /  1 1018.4F

$$
FLZ067-068-071>074-168-172>174-281800-
SOUTHEAST FLORIDA

CITY           SKY/WX    TMP DP  RH WIND       PRES   REMARKS
W PALM BEACH   SUNNY     90  58  33 W7        30.06S
BOCA RATON     SUNNY     91  64  40 W10       30.06S
FT LAUDER-EXEC SUNNY     95  63  34 SW8G20    30.05F HX  96
FT LAUDERDALE  SUNNY     92  67  43 W9G20     30.05S HX  95
POMPANO BEACH  SUNNY     92  65  40 VRB7      30.05F
PEMBROKE PINES SUNNY     92  66  42 SW10      30.06F
OPA LOCKA      SUNNY     93  74  53 W9        30.06F HX 103
MIAMI          SUNNY     94  68  42 VRB5      30.05F HX  98
WEST KENDALL   SUNNY     90  63  40 SW9       30.06S
HOMESTEAD      MOSUNNY   92  74  55 SW7       30.05S HX 101

STATION/POSITION SKY/WX   TEMP    WIND        PRES    WAVE   SWELL
                          AIR SEA DIR/SP/G            HT/PER HT/PER
                          (F)     (DEG/KT/KT) (MB)    (FT/S) (FT/S)
PORT EVERGLADES            84     130/  6/  8 1017.8F
VIRGINIA KEY               87 86  180/  6/  7 1017.2F
LAKE WORTH                 82 82              1019.0R
FOWEY ROCKS                88 81  210/  2/  2 1018.7F
SETTLEMENT POINT           83     220/ 10/ 10 1018.0S

$$




USA.gov is the U.S. government's official web portal to all federal, state and local government web resources and services.